Terug naar catalogus

SL-23 R/B

ActiefHEO
NORAD 35363·ROCKET BODY·🇷🇺 Russia

Gelanceerd Jun 21, 2009 vanaf Baikonur Cosmodrome

Loading…

Volgende Passages (komende 24 uur)

TLE

VerouderendSource: Space-Track

Epoch: Aug 31, 2026, 06:44 UTC

1 35363U 09032B   26243.28058698 -.00000040  00000-0  00000+0 0  9991
2 35363   8.0684 171.2651 4111974 112.7666  14.4849  1.68695150105891

Volg SL-23 R/B in realtime met AllMySat

Download on the App Store